This demonstration page uses our WeatherBlox Daily Observations layout. Learn more.

Left ArrowRight Arrow

39.08367, -84.50855

Hourly Observations for April 18, 2015

Temp ( °F °C ) Dew Point ( °F °C ) Humidity (%) Winds ( mph kmh ) Pressure ( in mb ) Visibility ( mi km ) Precip ( " mm )
12:53 am 00:53 Clear 53 11.7 51 10.6 93 93 N N/A 30.04 1017 10 16 N/A
1:53 am 01:53 Clear 52 11.1 50 10 93 93 N N/A 30.04 1017 10 16 N/A
2:53 am 02:53 Clear 52 11.1 51 10.6 97 97 N N/A 30.05 1018 10 16 N/A
3:53 am 03:53 Clear 50 10 50 10 100 100 NNE 3 6 30.06 1018 9 14 N/A
4:53 am 04:53 Clear 49 9.4 49 9.4 100 100 N N/A 30.05 1018 8 13 N/A
5:53 am 05:53 Clear 49 9.4 48 8.9 97 97 N N/A 30.04 1017 7 11 N/A
6:10 am 06:10 Clear with Mist and Fog 48 9 48 9 100 100 N N/A 30.06 1018 2 2 N/A
6:21 am 06:21 Clear with Mist and Fog 47 8.3 47 8.3 100 100 N N/A 30.06 1018 4 6 N/A
6:53 am 06:53 Clear 47 8.3 47 8.3 100 100 N N/A 30.05 1018 10 16 N/A
7:53 am 07:53 Sunny 49 9.4 49 9.4 100 100 N N/A 30.06 1018 10 16 N/A
8:53 am 08:53 Sunny 55 12.8 51 10.6 87 87 N N/A 30.07 1018 10 16 N/A
9:53 am 09:53 Sunny 62 16.7 50 10 65 65 N N/A 30.06 1018 10 16 N/A
10:53 am 10:53 Sunny 67 19.4 49 9.4 53 53 N N/A 30.05 1018 10 16 N/A
11:53 am 11:53 Sunny 73 22.8 49 9.4 43 43 NE 6 9 30.05 1018 10 16 N/A
12:53 pm 12:53 Sunny 75 23.9 51 10.6 43 43 NE 8 13 30.04 1017 10 16 N/A
1:53 pm 13:53 Sunny 76 24.4 48 8.9 37 37 VRB 6 9 30.02 1017 10 16 N/A
2:53 pm 14:53 Sunny 77 25 47 8.3 35 35 NE 12 19 30.01 1016 10 16 N/A
3:53 pm 15:53 Sunny 77 25 49 9.4 37 37 E 9 15 30.00 1016 10 16 N/A
4:53 pm 16:53 Sunny 77 25 49 9.4 37 37 ENE 12 19 29.96 1015 10 16 N/A
5:53 pm 17:53 Sunny 77 25 48 8.9 36 36 ENE 13 20 29.96 1015 10 16 N/A
6:53 pm 18:53 Sunny 74 23.3 48 8.9 40 40 ENE 10 17 29.95 1014 10 16 N/A
7:53 pm 19:53 Sunny 72 22.2 48 8.9 43 43 E 7 11 29.95 1014 10 16 N/A
8:53 pm 20:53 Clear 65 18.3 52 11.1 63 63 N N/A 29.96 1015 10 16 N/A
9:53 pm 21:53 Clear 62 16.7 54 12.2 75 75 N N/A 29.97 1015 10 16 N/A
10:53 pm 22:53 Clear 60 15.6 54 12.2 80 80 N N/A 29.96 1015 10 16 N/A
11:53 pm 23:53 Clear 59 15 55 12.8 87 87 N N/A 29.94 1014 10 16 N/A

Powered by AerisWeather